Weather History for Monroe, MI

Change the Weather History Date:

Sunday, March 16, 2014

  Actual Average Record
Temperature  
Mean Temperature 22 °F -  
Max Temperature 30 °F 45 °F 77 °F (1990)
Min Temperature 14 °F 25 °F 14 °F (1992)
Degree Days  
Heating Degree Days 43    
Moisture  
Dew Point 8 °F    
Average Humidity 60    
Maximum Humidity 73    
Minimum Humidity 39    
Precipitation  
Precipitation 0.00 in - - ()
Sea Level Pressure  
Sea Level Pressure 30.28 in    
Wind  
Wind Speed 11 mph (NE)    
Max Wind Speed 17 mph    
Max Gust Speed 23 mph    
Visibility 10 miles    
Events      
Averages and records for this station are not official NWS values.
T = Trace of Precipitation, MM = Missing Value Source: NWS Daily Summary

Daily Weather History Graph

Daily Weather History Graph

Search for Another Location

Airport:

Trip Planner

Search our weather history database for the weather conditions in past years. The results will help you decide how hot, cold, wet, or windy it might be!

Date:

Astronomy

Mar. 16, 2014 Rise Set
Actual Time 7:43 AM EDT 7:41 PM EDT
Civil Twilight 7:16 AM EDT 8:09 PM EDT
Nautical Twilight 6:43 AM EDT 8:41 PM EDT
Astronomical Twilight 6:10 AM EDT 9:14 PM EDT
Moon 7:58 PM EDT (3/16) 7:26 AM EDT (3/16)
Length of Visible Light 12h 53m
Length of Day
11h 57m
Full, 100% of the Moon is Illuminated
Mar 16
Full
Mar 16
Full
Mar 23
Last Quarter
Mar 30
New
Apr 7
First Quarter

Hourly Weather History & Observations

Time (EDT) Temp. Windchill Dew Point Humidity Pressure Visibility Wind Dir Wind Speed Gust Speed Precip Events Conditions
12:16 AM 30.2 °F 23.4 °F 17.6 °F 60% 30.23 in 10.0 mi North 6.9 mph - N/A   Overcast
12:36 AM 30.2 °F 21.3 °F 17.6 °F 60% 30.23 in 10.0 mi North 10.4 mph - N/A   Overcast
12:56 AM 30.2 °F 21.9 °F 17.6 °F 60% 30.23 in 10.0 mi NNE 9.2 mph 16.1 mph N/A   Overcast
1:16 AM 28.4 °F 17.0 °F 15.8 °F 59% 30.23 in 10.0 mi North 15.0 mph 18.4 mph N/A   Overcast
1:36 AM 28.4 °F 17.0 °F 15.8 °F 59% 30.23 in 10.0 mi North 15.0 mph 18.4 mph N/A   Overcast
1:57 AM 26.6 °F 15.7 °F 15.8 °F 64% 30.24 in 10.0 mi North 12.7 mph 16.1 mph N/A   Overcast
2:12 AM 26.6 °F 16.8 °F 14.0 °F 59% 30.25 in 10.0 mi NNE 10.4 mph 16.1 mph N/A   Mostly Cloudy
2:32 AM 26.6 °F 16.2 °F 12.2 °F 55% 30.26 in 10.0 mi NNE 11.5 mph - N/A   Mostly Cloudy
2:52 AM 24.8 °F 14.6 °F 10.4 °F 54% 30.27 in 10.0 mi NNE 10.4 mph - N/A   Overcast
3:12 AM 24.8 °F 14.0 °F 6.8 °F 46% 30.28 in 10.0 mi North 11.5 mph - N/A   Overcast
3:32 AM 23.0 °F 11.1 °F 1.4 °F 39% 30.29 in 10.0 mi NNE 12.7 mph 18.4 mph N/A   Overcast
3:52 AM 23.0 °F 12.4 °F 6.8 °F 50% 30.29 in 10.0 mi NNE 10.4 mph - N/A   Overcast
4:12 AM 23.0 °F 13.1 °F 8.6 °F 54% 30.29 in 10.0 mi NNE 9.2 mph 17.3 mph N/A   Overcast
4:32 AM 21.2 °F 10.9 °F 10.4 °F 63% 30.30 in 10.0 mi North 9.2 mph - N/A   Overcast
4:53 AM 21.2 °F 9.5 °F 10.4 °F 63% 30.29 in 10.0 mi NNE 11.5 mph 17.3 mph N/A   Overcast
5:13 AM 21.2 °F 10.1 °F 10.4 °F 63% 30.29 in 10.0 mi NNE 10.4 mph 16.1 mph N/A   Overcast
5:33 AM 19.4 °F 6.6 °F 10.4 °F 68% 30.29 in 10.0 mi NE 12.7 mph - N/A   Overcast
5:53 AM 19.4 °F 6.6 °F 10.4 °F 68% 30.30 in 10.0 mi North 12.7 mph 21.9 mph N/A   Overcast
6:13 AM 19.4 °F 6.0 °F 10.4 °F 68% 30.29 in 10.0 mi North 13.8 mph 21.9 mph N/A   Overcast
6:33 AM 19.4 °F 7.9 °F 8.6 °F 63% 30.30 in 10.0 mi NNE 10.4 mph 16.1 mph N/A   Overcast
6:53 AM 19.4 °F 7.9 °F 8.6 °F 63% 30.31 in 10.0 mi NE 10.4 mph 16.1 mph N/A   Overcast
7:13 AM 19.4 °F 9.5 °F 8.6 °F 63% 30.32 in 10.0 mi NNE 8.1 mph - N/A   Overcast
7:33 AM 19.4 °F 8.6 °F 8.6 °F 63% 30.33 in 10.0 mi NE 9.2 mph - N/A   Mostly Cloudy
7:53 AM 17.6 °F 8.2 °F 8.6 °F 68% 30.33 in 10.0 mi NNE 6.9 mph - N/A   Overcast
8:14 AM 17.6 °F 5.7 °F 8.6 °F 68% 30.33 in 10.0 mi NNE 10.4 mph 16.1 mph N/A   Mostly Cloudy
8:34 AM 17.6 °F 5.7 °F 8.6 °F 68% 30.33 in 10.0 mi NNE 10.4 mph 17.3 mph N/A   Scattered Clouds
8:54 AM 17.6 °F 6.4 °F 8.6 °F 68% 30.34 in 10.0 mi NE 9.2 mph 17.3 mph N/A   Scattered Clouds
9:14 AM 17.6 °F 6.4 °F 6.8 °F 63% 30.34 in 10.0 mi NNE 9.2 mph - N/A   Clear
9:34 AM 17.6 °F 5.0 °F 6.8 °F 63% 30.35 in 10.0 mi NNE 11.5 mph 18.4 mph N/A   Clear
9:54 AM 17.6 °F 6.4 °F 6.8 °F 63% 30.36 in 10.0 mi NE 9.2 mph 19.6 mph N/A   Clear
10:14 AM 17.6 °F 4.3 °F 6.8 °F 63% 30.35 in 10.0 mi NNE 12.7 mph 17.3 mph N/A   Scattered Clouds
10:34 AM 17.6 °F 3.2 °F 8.6 °F 68% 30.36 in 10.0 mi ENE 15.0 mph 19.6 mph N/A   Scattered Clouds
10:54 AM 17.6 °F 3.7 °F 8.6 °F 68% 30.35 in 10.0 mi NE 13.8 mph 21.9 mph N/A   Scattered Clouds
11:14 AM 17.6 °F 4.3 °F 6.8 °F 63% 30.36 in 10.0 mi ENE 12.7 mph 19.6 mph N/A   Scattered Clouds
11:35 AM 19.4 °F 6.0 °F 8.6 °F 63% 30.36 in 10.0 mi NE 13.8 mph 23.0 mph N/A   Scattered Clouds
11:55 AM 19.4 °F 5.0 °F 8.6 °F 63% 30.36 in 10.0 mi NE 16.1 mph 19.6 mph N/A   Mostly Cloudy
12:15 PM 19.4 °F 5.0 °F 8.6 °F 63% 30.37 in 10.0 mi ENE 16.1 mph 23.0 mph N/A   Mostly Cloudy
12:35 PM 19.4 °F 5.5 °F 6.8 °F 58% 30.38 in 10.0 mi ENE 15.0 mph 20.7 mph N/A   Scattered Clouds
12:55 PM 19.4 °F 6.6 °F 8.6 °F 63% 30.38 in 10.0 mi ENE 12.7 mph 19.6 mph N/A   Scattered Clouds
1:15 PM 19.4 °F 6.0 °F 8.6 °F 63% 30.38 in 10.0 mi East 13.8 mph 20.7 mph N/A   Scattered Clouds
1:35 PM 19.4 °F 5.5 °F 8.6 °F 63% 30.38 in 10.0 mi ENE 15.0 mph 21.9 mph N/A   Scattered Clouds
1:55 PM 19.4 °F 7.2 °F 8.6 °F 63% 30.37 in 10.0 mi NE 11.5 mph 20.7 mph N/A   Scattered Clouds
2:15 PM 19.4 °F 6.0 °F 6.8 °F 58% 30.35 in 10.0 mi NE 13.8 mph 18.4 mph N/A   Scattered Clouds
2:36 PM 21.2 °F 8.3 °F 6.8 °F 54% 30.34 in 10.0 mi ENE 13.8 mph 20.7 mph N/A   Clear
2:56 PM 21.2 °F 7.3 °F 6.8 °F 54% 30.32 in 10.0 mi NE 16.1 mph 19.6 mph N/A   Clear
3:16 PM 21.2 °F 6.8 °F 6.8 °F 54% 30.30 in 10.0 mi NE 17.3 mph 20.7 mph N/A   Clear
3:36 PM 21.2 °F 8.9 °F 8.6 °F 58% 30.29 in 10.0 mi ENE 12.7 mph 18.4 mph N/A   Clear
3:56 PM 21.2 °F 8.3 °F 6.8 °F 54% 30.27 in 10.0 mi ENE 13.8 mph 19.6 mph N/A   Clear
4:16 PM 21.2 °F 7.3 °F 5.0 °F 50% 30.27 in 10.0 mi ENE 16.1 mph 21.9 mph N/A   Clear
4:36 PM 21.2 °F 8.3 °F 3.2 °F 46% 30.25 in 10.0 mi ENE 13.8 mph 20.7 mph N/A   Clear
4:51 PM 21.2 °F 7.3 °F 3.2 °F 46% 30.26 in 10.0 mi ENE 16.1 mph - N/A   Clear
5:13 PM 21.2 °F 8.9 °F 3.2 °F 46% 30.25 in 10.0 mi ENE 12.7 mph - N/A   Clear
5:34 PM 21.2 °F 8.3 °F -0.4 °F 39% 30.25 in 10.0 mi NE 13.8 mph 20.7 mph N/A   Clear
5:54 PM 21.2 °F 8.3 °F 1.4 °F 42% 30.25 in 10.0 mi ENE 13.8 mph 19.6 mph N/A   Clear
6:14 PM 19.4 °F 6.0 °F 3.2 °F 49% 30.24 in 10.0 mi ENE 13.8 mph 19.6 mph N/A   Clear
6:34 PM 19.4 °F 7.2 °F 5.0 °F 54% 30.24 in 10.0 mi ENE 11.5 mph - N/A   Clear
6:54 PM 19.4 °F 6.6 °F 5.0 °F 54% 30.24 in 10.0 mi ENE 12.7 mph - N/A   Clear
7:14 PM 19.4 °F 8.6 °F 6.8 °F 58% 30.23 in 10.0 mi NE 9.2 mph 16.1 mph N/A   Clear
7:34 PM 17.6 °F 7.3 °F 6.8 °F 63% 30.23 in 10.0 mi ENE 8.1 mph - N/A   Clear
7:54 PM 17.6 °F 6.4 °F 6.8 °F 63% 30.24 in 10.0 mi ENE 9.2 mph - N/A   Clear
8:14 PM 17.6 °F 5.0 °F 5.0 °F 58% 30.23 in 10.0 mi ENE 11.5 mph 17.3 mph N/A   Clear
8:34 PM 17.6 °F 6.4 °F 5.0 °F 58% 30.24 in 10.0 mi ENE 9.2 mph - N/A   Clear
8:55 PM 17.6 °F 6.4 °F 5.0 °F 58% 30.24 in 10.0 mi ENE 9.2 mph - N/A   Clear
9:15 PM 17.6 °F 5.0 °F 6.8 °F 63% 30.24 in 10.0 mi NE 11.5 mph 17.3 mph N/A   Clear
9:35 PM 15.8 °F 3.4 °F 6.8 °F 68% 30.23 in 10.0 mi NE 10.4 mph 17.3 mph N/A   Clear
9:55 PM 15.8 °F 4.2 °F 6.8 °F 68% 30.22 in 10.0 mi NE 9.2 mph - N/A   Clear
10:15 PM 15.8 °F 5.1 °F 6.8 °F 68% 30.22 in 10.0 mi NNE 8.1 mph - N/A   Clear
10:35 PM 15.8 °F 6.1 °F 6.8 °F 68% 30.21 in 10.0 mi NE 6.9 mph 17.3 mph N/A   Clear
10:55 PM 15.8 °F 3.4 °F 6.8 °F 68% 30.19 in 10.0 mi NE 10.4 mph - N/A   Clear
11:15 PM 15.8 °F 3.4 °F 6.8 °F 68% 30.18 in 10.0 mi NNE 10.4 mph - N/A   Clear
11:35 PM 14.0 °F 0.5 °F 6.8 °F 73% 30.18 in 10.0 mi NE 11.5 mph 17.3 mph N/A   Clear
11:56 PM 14.0 °F 2.0 °F 6.8 °F 73% 30.17 in 10.0 mi NE 9.2 mph - N/A   Clear